DW3200 Weather Reports


time (UTC)temp
C
wind
direction
speed
KPH
gust
KPH
rain 1hr
cm
rain 24hr
cm
rain mn
cm
humidity
%
barometer
mb
20260831144548 5 279 0.0 0.0 0.00 0.00 0.00 79 1016.4
20260831143036 5 279 0.0 0.0 0.00 0.00 0.00 82 1016.4
20260831141525 3 279 0.0 0.0 0.00 0.00 0.00 84 1016.4
20260831140004 2 279 0.0 0.0 0.00 0.00 0.00 84 1016.4
20260831134504 2 279 0.0 0.0 0.00 0.00 0.00 84 1016.2
20260831133046 2 279 0.0 0.0 0.00 0.00 0.00 84 1016.1
20260831131544 1 279 0.0 0.0 0.00 0.00 0.00 83 1016.0
20260831130025 1 279 0.0 0.0 0.00 0.00 0.00 82 1016.0
20260831124524 2 279 0.0 0.0 0.00 0.00 0.00 81 1016.0
20260831123004 2 279 0.0 0.0 0.00 0.00 0.00 82 1016.0
20260831121503 2 279 0.0 0.0 0.00 0.00 0.00 81 1015.9
20260831120046 2 279 0.0 0.0 0.00 0.00 0.00 81 1015.7
20260831114543 2 279 0.0 0.0 0.00 0.00 0.00 80 1015.9
20260831113023 3 279 0.0 0.0 0.00 0.00 0.00 80 1015.8
20260831111523 3 279 0.0 0.0 0.00 0.00 0.00 80 1015.8
20260831110005 3 279 0.0 0.0 0.00 0.00 0.00 80 1015.8
20260831104509 3 279 0.0 0.0 0.00 0.00 0.00 79 1015.8
20260831103052 3 279 0.0 0.0 0.00 0.00 0.00 78 1015.8
20260831101546 3 279 0.0 0.0 0.00 0.00 0.00 78 1016.0
20260831100027 3 279 0.0 0.0 0.00 0.00 0.00 78 1015.9
20260831094530 3 279 0.0 0.0 0.00 0.00 0.00 77 1015.9
20260831093009 3 279 0.0 0.0 0.00 0.00 0.00 77 1016.1
20260831091508 4 279 0.0 0.0 0.00 0.00 0.00 77 1016.1
20260831090050 4 279 0.0 0.0 0.00 0.00 0.00 76 1016.2
20260831084602 4 279 0.0 0.0 0.00 0.00 0.00 76 1016.3
20260831083038 4 279 0.0 0.0 0.00 0.00 0.00 75 1016.3
20260831081535 4 279 0.0 0.0 0.00 0.00 0.00 74 1016.4
20260831080014 5 279 0.0 0.0 0.00 0.00 0.00 73 1016.3
20260831074531 5 279 0.0 0.0 0.00 0.00 0.00 73 1016.3
20260831073138 6 279 0.0 0.0 0.00 0.00 0.00 72 1016.3
20260831071555 6 279 0.0 0.0 0.00 0.00 0.00 70 1016.1
20260831070038 6 279 0.0 0.0 0.00 0.00 0.00 70 1016.1
20260831064541 7 279 0.0 0.0 0.00 0.00 0.00 68 1016.1
20260831063021 7 279 0.0 0.0 0.00 0.00 0.00 68 1015.9
20260831061530 7 279 0.0 0.0 0.00 0.00 0.00 67 1015.9
20260831060008 7 279 0.0 0.0 0.00 0.00 0.00 66 1016.0
20260831054508 8 279 0.0 0.0 0.00 0.00 0.00 65 1016.1
20260831053017 8 279 0.0 0.0 0.00 0.00 0.00 64 1016.0
20260831051513 8 279 0.0 0.0 0.00 0.00 0.00 62 1016.1
20260831050026 9 279 0.0 0.0 0.00 0.00 0.00 61 1016.1
20260831044507 10 279 0.0 0.0 0.00 0.00 0.00 58 1016.1
20260831043005 10 279 0.0 0.0 0.00 0.00 0.00 57 1016.0
20260831041506 10 279 0.0 0.0 0.00 0.00 0.00 56 1015.8
20260831040052 11 279 0.0 0.0 0.00 0.00 0.00 52 1015.8
20260831034547 12 279 0.0 0.0 0.00 0.00 0.00 50 1015.8
20260831033029 13 279 0.0 0.0 0.00 0.00 0.00 48 1015.8
20260831031529 14 279 0.0 0.0 0.00 0.00 0.00 45 1015.7
20260831030024 15 279 0.0 0.0 0.00 0.00 0.00 42 1015.5
20260831024511 16 279 0.0 0.0 0.00 0.00 0.00 39 1015.3
20260831023052 17 279 0.0 0.0 0.00 0.00 0.00 36 1015.1
20260831021553 18 279 0.0 0.0 0.00 0.00 0.00 34 1015.0
20260831020050 18 279 0.0 0.0 0.00 0.00 0.00 32 1015.0
20260831014551 19 279 0.0 0.0 0.00 0.00 0.00 31 1015.1
20260831013033 20 279 1.6 0.0 0.00 0.00 0.00 30 1015.1
20260831011537 20 279 1.6 0.0 0.00 0.00 0.00 28 1015.2
20260831010011 20 279 1.6 0.0 0.00 0.00 0.00 29 1015.3
20260831004515 20 279 3.2 0.0 0.00 0.00 0.00 28 1015.4
20260831003053 21 279 1.6 0.0 0.00 0.00 0.00 29 1015.4
20260831001550 20 279 3.2 0.0 0.00 0.00 0.00 30 1015.5
20260831000039 20 278 6.4 0.0 0.00 0.00 0.00 31 1015.6
20260830234531 20 286 9.7 0.0 0.00 0.00 0.00 31 1015.7
20260830233020 20 276 9.7 0.0 0.00 0.00 0.00 31 1015.8
20260830231512 21 299 3.2 0.0 0.00 0.00 0.00 32 1015.8
20260830230111 20 309 6.4 0.0 0.00 0.00 0.00 32 1015.8
20260830224553 20 56 3.2 0.0 0.00 0.00 0.00 33 1016.0
20260830223051 20 292 3.2 0.0 0.00 0.00 0.00 33 1016.2
20260830221534 20 296 9.7 0.0 0.00 0.00 0.00 34 1016.3
20260830220053 21 290 3.2 0.0 0.00 0.00 0.00 33 1016.3
20260830214517 20 294 6.4 0.0 0.00 0.00 0.00 34 1016.4
20260830213018 20 302 1.6 0.0 0.00 0.00 0.00 36 1016.5
20260830211554 19 299 3.2 0.0 0.00 0.00 0.00 35 1016.6
20260830210051 19 319 4.8 0.0 0.00 0.00 0.00 37 1016.8
20260830204548 18 272 8.0 0.0 0.00 0.00 0.00 37 1016.9
20260830203032 19 273 12.9 0.0 0.00 0.00 0.00 37 1016.8
20260830201513 19 290 4.8 0.0 0.00 0.00 0.00 37 1016.8
20260830200011 19 304 1.6 0.0 0.00 0.00 0.00 38 1016.9
20260830194552 18 306 1.6 0.0 0.00 0.00 0.00 38 1017.0
20260830193052 18 283 8.0 0.0 0.00 0.00 0.00 37 1017.1
20260830191612 18 277 4.8 0.0 0.00 0.00 0.00 36 1017.1
20260830190037 18 261 3.2 0.0 0.00 0.00 0.00 36 1017.2
20260830184515 17 277 8.0 0.0 0.00 0.00 0.00 37 1017.2
20260830183011 17 203 4.8 0.0 0.00 0.00 0.00 39 1017.3
20260830181553 17 288 6.4 0.0 0.00 0.00 0.00 40 1017.4
20260830180055 17 257 6.4 0.0 0.00 0.00 0.00 42 1017.5
20260830174535 16 285 6.4 0.0 0.00 0.00 0.00 42 1017.4
20260830173031 16 285 0.0 0.0 0.00 0.00 0.00 42 1017.4
20260830171512 15 281 4.8 0.0 0.00 0.00 0.00 45 1017.5
20260830170011 15 198 4.8 0.0 0.00 0.00 0.00 45 1017.5
20260830164550 15 292 0.0 0.0 0.00 0.00 0.00 47 1017.5
20260830163048 15 292 0.0 0.0 0.00 0.00 0.00 48 1017.7
20260830161527 13 292 0.0 0.0 0.00 0.00 0.00 51 1017.7
20260830160033 13 292 0.0 0.0 0.00 0.00 0.00 52 1017.9
20260830154507 12 292 0.0 0.0 0.00 0.00 0.00 54 1017.8
20260830153103 12 292 0.0 0.0 0.00 0.00 0.00 57 1018.0
20260830151539 11 292 0.0 0.0 0.00 0.00 0.00 64 1018.0
20260830150041 8 292 0.0 0.0 0.00 0.00 0.00 75 1018.1